Valdosta Regional, GA

10:41 AM EDT on May 22, 2018 (GMT -0400)
Valdosta Regional

Weather History for KVLD - June, 2013

Change the Weather History Date:

Thursday, June 13, 2013

  Actual Average Record
Temperature  
Mean Temperature 88 °F 79 °F  
Max Temperature 99 °F 90 °F 105 °F (2011)
Min Temperature 76 °F 69 °F 64 °F (2007)
Cooling Degree Days 23 14  
Month to date cooling degree days 235 174  
Year to date cooling degree days 797 586  
Since 1 June cooling degree days 235 174  
Growing Degree Days 37 (Base 50)    
Moisture  
Dew Point 74 °F    
Average Humidity 65    
Maximum Humidity 88    
Minimum Humidity 42    
Precipitation  
Precipitation T in 0.21 in 1.41 in (1949)
Month to date precipitation T 2.76  
Year to date precipitation 14.54 21.76  
Sea Level Pressure  
Sea Level Pressure 29.96 in    
Wind  
Wind Speed 4 mph (SSW)    
Max Wind Speed 13 mph    
Max Gust Speed 22 mph    
Visibility 8 miles    
Events      
T = Trace of Precipitation, MM = Missing Value Source: NWS Daily Summary

Daily Weather History Graph

Daily Weather History Graph

Search for Another Location

Airport or City:

Astronomy

Jun. 13, 2013 Rise Set
Actual Time 6:29 AM EDT 8:37 PM EDT
Civil Twilight 6:01 AM EDT 9:04 PM EDT
Nautical Twilight 5:28 AM EDT 9:38 PM EDT
Astronomical Twilight 4:51 AM EDT 10:14 PM EDT
Moon 10:50 AM EDT (6/13) No Moon Set
Length of Visible Light 15h 02m
Length of Day
14h 07m
Waxing Crescent, 21% of the Moon is Illuminated
Jun 13
Waxing Crescent
Jun 16
First Quarter
Jun 23
Full
Jun 30
Last Quarter
Jul 8
New

Hourly Weather History & Observations

Time (EDT) Temp. Heat Index Dew Point Humidity Pressure Visibility Wind Dir Wind Speed Gust Speed Precip Events Conditions
12:53 AM 81.0 °F 86.2 °F 73.9 °F 79% 30.03 in 10.0 mi Calm Calm - N/A   Clear
1:53 AM 81.0 °F 86.7 °F 75.0 °F 82% 30.01 in 9.0 mi Calm Calm - N/A   Clear
2:53 AM 80.1 °F 85.1 °F 75.0 °F 85% 30.00 in 7.0 mi Calm Calm - N/A   Clear
3:53 AM 79.0 °F - 73.9 °F 84% 29.99 in 6.0 mi Calm Calm - N/A   Haze
4:53 AM 78.1 °F - 73.9 °F 87% 29.99 in 5.0 mi Calm Calm - N/A   Clear
5:53 AM 77.0 °F - 73.0 °F 88% 29.99 in 4.0 mi Calm Calm - N/A   Clear
6:30 AM 77.0 °F - 71.6 °F 83% 29.99 in 2.5 mi Calm Calm - N/A   Haze
6:38 AM 75.2 °F - 71.6 °F 89% 29.99 in 3.0 mi Calm Calm - N/A   Clear
6:53 AM 77.0 °F - 72.0 °F 84% 30.01 in 3.0 mi Calm Calm - N/A   Haze
7:53 AM 81.0 °F 86.7 °F 75.0 °F 82% 30.01 in 5.0 mi Calm Calm - N/A   Haze
8:53 AM 86.0 °F 95.1 °F 75.0 °F 70% 30.03 in 8.0 mi Calm Calm - N/A   Clear
9:53 AM 90.0 °F 100.2 °F 75.0 °F 61% 30.02 in 10.0 mi Variable 3.5 mph - N/A   Clear
10:53 AM 93.9 °F 104.0 °F 73.9 °F 52% 30.01 in 10.0 mi Variable 3.5 mph - N/A   Clear
11:53 AM 93.9 °F 103.4 °F 73.0 °F 51% 30.01 in 10.0 mi Variable 3.5 mph - N/A   Scattered Clouds
12:50 PM 96.8 °F 112.2 °F 77.0 °F 53% 29.98 in 10.0 mi West 5.8 mph - N/A   Scattered Clouds
12:53 PM - - - N/A% 29.97 in - North - - N/A   Unknown
1:53 PM 97.0 °F 105.5 °F 72.0 °F 44% 29.96 in 10.0 mi Variable 4.6 mph - N/A   Partly Cloudy
2:53 PM 97.0 °F 104.8 °F 71.1 °F 43% 29.93 in 10.0 mi Variable 5.8 mph - N/A   Scattered Clouds
3:53 PM 99.0 °F 107.0 °F 71.1 °F 40% 29.91 in 10.0 mi Variable 4.6 mph - N/A   Scattered Clouds
4:53 PM 95.0 °F 104.5 °F 73.0 °F 49% 29.89 in 10.0 mi Variable 5.8 mph - N/A   Scattered Clouds
5:53 PM 91.0 °F 101.6 °F 75.0 °F 59% 29.89 in 10.0 mi South 8.1 mph 19.6 mph N/A   Partly Cloudy
6:53 PM 89.1 °F 100.2 °F 75.9 °F 65% 29.88 in 10.0 mi SSW 6.9 mph - N/A   Scattered Clouds
7:53 PM 87.1 °F 96.3 °F 75.0 °F 67% 29.88 in 10.0 mi SSW 9.2 mph 18.4 mph 0.00 in   Scattered Clouds
8:53 PM 84.9 °F 92.1 °F 73.9 °F 69% 29.90 in 10.0 mi SSW 5.8 mph - N/A   Partly Cloudy
9:53 PM 82.9 °F 89.4 °F 73.9 °F 74% 29.90 in 10.0 mi SSW 8.1 mph - N/A   Clear
10:53 PM 82.0 °F 87.9 °F 73.9 °F 76% 29.90 in 10.0 mi SSW 5.8 mph - N/A   Partly Cloudy
11:53 PM 81.0 °F 86.2 °F 73.9 °F 79% 29.92 in 10.0 mi South 3.5 mph - N/A   Clear